• In Kazakhstan
  • List of Countries
  • For 7 days
  • Water Temperature
  • Weather Map
  • News
  • Weather Widgets
  • user-avatar
    Login

    Hourly Weather Ostersund

    Today, 24 February, Monday

    Time Temperature Precipitation Wind Pressure Humidity
    00:00 -7°C° 0 mm 4 mps 716 mmHg 80%
    01:00 -7°C° 0 mm 4 mps 717 mmHg 79%
    02:00 -5°C° 0 mm 4 mps 718 mmHg 81%
    03:00 -5°C° 0 mm 4 mps 718 mmHg 82%
    04:00 -5°C° 0 mm 4 mps 718 mmHg 84%
    05:00 -7°C° 0 mm 4 mps 719 mmHg 84%
    06:00 -6°C° 0 mm 3 mps 720 mmHg 84%
    07:00 -6°C° 0 mm 3 mps 720 mmHg 84%
    08:00 -6°C° 0 mm 3 mps 720 mmHg 82%
    09:00 -5°C° 0 mm 3 mps 721 mmHg 80%
    10:00 -4°C° 0 mm 3 mps 721 mmHg 78%
    11:00 -3°C° 0 mm 2 mps 721 mmHg 76%
    12:00 -2°C° 0 mm 2 mps 721 mmHg 75%
    13:00 -2°C° 0 mm 2 mps 721 mmHg 73%
    14:00 -2°C° 0.2 mm 2 mps 721 mmHg 77%
    15:00 -1°C° 0.2 mm 1 mps 721 mmHg 82%
    16:00 -1°C° 0.2 mm 1 mps 721 mmHg 86%
    17:00 -2°C° 0 mm 1 mps 721 mmHg 86%
    18:00 -3°C° 0 mm 1 mps 721 mmHg 87%
    19:00 -6°C° 0 mm 1 mps 722 mmHg 87%
    20:00 -6°C° 0 mm 1 mps 722 mmHg 87%
    21:00 -7°C° 0 mm 1 mps 722 mmHg 86%
    22:00 -7°C° 0 mm 1 mps 722 mmHg 86%
    23:00 -7°C° 0 mm 1 mps 722 mmHg 86%

    Tomorrow, 25 February, Tuesday

    Time Temperature Precipitation Wind Pressure Humidity
    00:00 -8°C° 0 mm 1 mps 722 mmHg 86%
    01:00 -8°C° 0 mm 0 mps 722 mmHg 86%
    02:00 -8°C° 0 mm 0 mps 721 mmHg 86%
    03:00 -9°C° 0 mm 0 mps 721 mmHg 86%
    04:00 -9°C° 0 mm 0 mps 720 mmHg 86%
    05:00 -9°C° 0 mm 0 mps 720 mmHg 85%
    06:00 -9°C° 0 mm 0 mps 720 mmHg 85%
    07:00 -9°C° 0 mm 0 mps 720 mmHg 84%
    08:00 -8°C° 0 mm 0 mps 720 mmHg 81%
    09:00 -7°C° 0 mm 0 mps 719 mmHg 77%
    10:00 -6°C° 0 mm 0 mps 719 mmHg 73%
    11:00 -5°C° 0 mm 0 mps 719 mmHg 70%
    12:00 -4°C° 0 mm 0 mps 719 mmHg 68%
    13:00 -3°C° 0 mm 0 mps 719 mmHg 65%
    14:00 -4°C° 0 mm 0 mps 718 mmHg 69%
    15:00 -4°C° 0 mm 0 mps 718 mmHg 72%
    16:00 -5°C° 0 mm 0 mps 718 mmHg 76%
    17:00 -6°C° 0 mm 1 mps 718 mmHg 79%
    18:00 -7°C° 0 mm 1 mps 718 mmHg 83%
    19:00 -8°C° 0 mm 1 mps 718 mmHg 86%
    20:00 -8°C° 0 mm 1 mps 718 mmHg 89%
    21:00 -9°C° 0 mm 1 mps 719 mmHg 92%
    22:00 -9°C° 0 mm 1 mps 719 mmHg 94%
    23:00 -10°C° 0 mm 1 mps 719 mmHg 94%

    Day after tomorrow, 26 February, Wednesday

    Time Temperature Precipitation Wind Pressure Humidity
    00:00 -12°C° 0 mm 2 mps 719 mmHg 94%
    01:00 -12°C° 0 mm 2 mps 719 mmHg 94%
    02:00 -13°C° 0 mm 2 mps 719 mmHg 93%
    03:00 -13°C° 0 mm 2 mps 719 mmHg 93%
    04:00 -14°C° 0 mm 2 mps 719 mmHg 92%
    05:00 -14°C° 0 mm 2 mps 720 mmHg 91%
    06:00 -14°C° 0 mm 2 mps 720 mmHg 90%
    07:00 -15°C° 0 mm 2 mps 720 mmHg 89%
    08:00 -14°C° 0 mm 2 mps 721 mmHg 87%
    09:00 -13°C° 0 mm 2 mps 721 mmHg 84%
    10:00 -12°C° 0 mm 2 mps 721 mmHg 82%
    11:00 -9°C° 0 mm 1 mps 722 mmHg 79%
    12:00 -8°C° 0 mm 1 mps 722 mmHg 77%
    13:00 -7°C° 0 mm 1 mps 722 mmHg 75%
    14:00 -7°C° 0 mm 1 mps 722 mmHg 77%
    15:00 -7°C° 0 mm 1 mps 722 mmHg 79%
    16:00 -7°C° 0 mm 0 mps 722 mmHg 81%
    17:00 -8°C° 0 mm 0 mps 723 mmHg 83%
    18:00 -9°C° 0 mm 0 mps 723 mmHg 85%
    19:00 -10°C° 0 mm 0 mps 723 mmHg 87%
    20:00 -10°C° 0 mm 0 mps 723 mmHg 86%
    21:00 -11°C° 0 mm 0 mps 724 mmHg 85%
    22:00 -11°C° 0 mm 0 mps 724 mmHg 84%
    23:00 -11°C° 0 mm 0 mps 724 mmHg 83%

    27 February, Thursday

    Time Temperature Precipitation Wind Pressure Humidity
    00:00 -11°C° 0 mm 1 mps 724 mmHg 82%
    01:00 -11°C° 0 mm 1 mps 724 mmHg 81%
    02:00 -11°C° 0 mm 1 mps 724 mmHg 80%
    03:00 -11°C° 0 mm 1 mps 723 mmHg 78%
    04:00 -12°C° 0 mm 1 mps 723 mmHg 77%
    05:00 -12°C° 0 mm 1 mps 723 mmHg 76%
    06:00 -12°C° 0 mm 1 mps 723 mmHg 75%
    07:00 -12°C° 0 mm 1 mps 723 mmHg 74%
    08:00 -10°C° 0 mm 1 mps 723 mmHg 70%
    09:00 -10°C° 0 mm 2 mps 723 mmHg 66%
    10:00 -9°C° 0 mm 2 mps 723 mmHg 63%
    11:00 -8°C° 0 mm 2 mps 723 mmHg 62%
    12:00 -8°C° 0 mm 3 mps 723 mmHg 61%
    13:00 -7°C° 0 mm 3 mps 723 mmHg 60%
    14:00 -7°C° 0 mm 3 mps 722 mmHg 63%
    15:00 -7°C° 0 mm 3 mps 722 mmHg 66%
    16:00 -8°C° 0 mm 3 mps 722 mmHg 69%
    17:00 -8°C° 0 mm 3 mps 722 mmHg 72%
    18:00 -9°C° 0 mm 3 mps 721 mmHg 75%
    19:00 -10°C° 0 mm 3 mps 721 mmHg 78%
    20:00 -12°C° 0 mm 3 mps 721 mmHg 78%
    21:00 -12°C° 0 mm 3 mps 721 mmHg 79%
    22:00 -12°C° 0 mm 3 mps 721 mmHg 79%
    23:00 -12°C° 0 mm 3 mps 721 mmHg 80%

    28 February, Friday

    Time Temperature Precipitation Wind Pressure Humidity
    00:00 -12°C° 0 mm 3 mps 721 mmHg 80%
    01:00 -12°C° 0 mm 3 mps 720 mmHg 80%
    02:00 -12°C° 0 mm 3 mps 720 mmHg 81%
    03:00 -12°C° 0 mm 3 mps 720 mmHg 82%
    04:00 -13°C° 0 mm 3 mps 719 mmHg 83%
    05:00 -13°C° 0 mm 3 mps 719 mmHg 83%
    06:00 -12°C° 0 mm 3 mps 719 mmHg 83%
    07:00 -12°C° 0 mm 4 mps 719 mmHg 83%
    08:00 -12°C° 0 mm 4 mps 719 mmHg 79%
    09:00 -11°C° 0 mm 4 mps 719 mmHg 76%
    10:00 -10°C° 0 mm 4 mps 718 mmHg 73%
    11:00 -9°C° 0 mm 4 mps 718 mmHg 72%
    12:00 -9°C° 0 mm 4 mps 718 mmHg 71%
    13:00 -8°C° 0 mm 4 mps 717 mmHg 70%
    14:00 -8°C° 0 mm 4 mps 717 mmHg 73%
    15:00 -8°C° 0 mm 4 mps 717 mmHg 76%
    16:00 -7°C° 0 mm 3 mps 717 mmHg 79%
    17:00 -7°C° 0.1 mm 3 mps 717 mmHg 81%
    18:00 -8°C° 0.1 mm 3 mps 717 mmHg 82%
    19:00 -8°C° 0.1 mm 3 mps 717 mmHg 84%
    20:00 -8°C° 0 mm 2 mps 716 mmHg 86%
    21:00 -8°C° 0 mm 2 mps 716 mmHg 88%
    22:00 -9°C° 0 mm 2 mps 716 mmHg 90%
    23:00 -7°C° 0.2 mm 1 mps 715 mmHg 91%

    29 February, Saturday

    Time Temperature Precipitation Wind Pressure Humidity
    00:00 -7°C° 0.2 mm 1 mps 715 mmHg 93%
    01:00 -7°C° 0.2 mm 1 mps 715 mmHg 95%
    02:00 -7°C° 0.3 mm 1 mps 714 mmHg 95%
    03:00 -7°C° 0.3 mm 0 mps 714 mmHg 95%
    04:00 -7°C° 0.3 mm 0 mps 713 mmHg 95%
    05:00 -7°C° 0.2 mm 1 mps 713 mmHg 95%
    06:00 -8°C° 0.2 mm 1 mps 713 mmHg 95%
    07:00 -8°C° 0.2 mm 1 mps 712 mmHg 95%
    08:00 -7°C° 0.1 mm 1 mps 712 mmHg 93%
    09:00 -7°C° 0.1 mm 1 mps 712 mmHg 91%
    10:00 -8°C° 0.1 mm 2 mps 712 mmHg 88%
    11:00 -7°C° 0 mm 2 mps 711 mmHg 84%
    12:00 -7°C° 0 mm 2 mps 711 mmHg 81%
    13:00 -6°C° 0 mm 2 mps 711 mmHg 77%
    14:00 -6°C° 0 mm 2 mps 711 mmHg 78%
    15:00 -6°C° 0 mm 1 mps 711 mmHg 78%
    16:00 -6°C° 0 mm 1 mps 711 mmHg 79%
    17:00 -7°C° 0 mm 1 mps 710 mmHg 82%
    18:00 -8°C° 0 mm 1 mps 710 mmHg 85%
    19:00 -10°C° 0 mm 1 mps 710 mmHg 88%
    20:00 -10°C° 0.2 mm 1 mps 710 mmHg 89%
    21:00 -9°C° 0.2 mm 1 mps 710 mmHg 90%
    22:00 -9°C° 0.2 mm 1 mps 710 mmHg 91%
    23:00 -9°C° 0.3 mm 1 mps 710 mmHg 92%
    Show more